KZR314 UATE-UACC

Flight info

Callsign KZR314
Flight time 2h 13m
Altitude 39000
Route RIBMO1K RIBMO P574 VETUB VETUB5S
Aircraft A20N/M-SDE2E3FGHIRWXY/LB1

Departure

Time 2026-05-06 14:35
Airport Aktau International Airport (UATE)

Arrival

Time 2026-05-06 16:48
Airport Nursultan Nazarbayev International Airport (UACC)
Time Latitude Longitude Altitude Speed Heading
2026-05-06 14:07 43.85697 51.08837 78 ft 0 kts 213°
2026-05-06 14:24 43.85709 51.08847 78 ft 2 kts 213°
2026-05-06 14:24 43.85721 51.08859 78 ft 2 kts 213°
2026-05-06 14:25 43.85735 51.08869 78 ft 2 kts 185°
2026-05-06 14:25 43.85749 51.08866 78 ft 2 kts 151°
2026-05-06 14:25 43.85760 51.08852 78 ft 2 kts 117°
2026-05-06 14:25 43.85767 51.08834 78 ft 2 kts 125°
2026-05-06 14:26 43.85773 51.08823 78 ft 0 kts 123°
2026-05-06 14:26 43.85773 51.08822 78 ft 0 kts 123°
2026-05-06 14:29 43.85767 51.08840 78 ft 4 kts 111°
2026-05-06 14:29 43.85751 51.08910 77 ft 10 kts 115°
2026-05-06 14:29 43.85710 51.09001 77 ft 0 kts 122°
2026-05-06 14:29 43.85710 51.09003 77 ft 2 kts 122°
2026-05-06 14:30 43.85694 51.09038 77 ft 6 kts 123°
2026-05-06 14:30 43.85666 51.09099 76 ft 9 kts 122°
2026-05-06 14:30 43.85625 51.09188 75 ft 13 kts 122°
2026-05-06 14:30 43.85602 51.09267 73 ft 7 kts 70°
2026-05-06 14:31 43.85653 51.09320 72 ft 10 kts 31°
2026-05-06 14:31 43.85720 51.09377 72 ft 12 kts 32°
2026-05-06 14:31 43.85791 51.09443 73 ft 11 kts 40°
2026-05-06 14:31 43.85798 51.09546 72 ft 13 kts 120°
2026-05-06 14:32 43.85743 51.09668 70 ft 16 kts 122°
2026-05-06 14:32 43.85676 51.09813 68 ft 19 kts 123°
2026-05-06 14:32 43.85599 51.09978 65 ft 21 kts 122°
2026-05-06 14:32 43.85518 51.10154 62 ft 22 kts 122°
2026-05-06 14:33 43.85432 51.10338 60 ft 23 kts 123°
2026-05-06 14:33 43.85350 51.10513 59 ft 15 kts 129°
2026-05-06 14:33 43.85278 51.10575 59 ft 10 kts 154°
2026-05-06 14:33 43.85258 51.10636 59 ft 7 kts 67°
2026-05-06 14:34 43.85298 51.10629 59 ft 8 kts 302°
2026-05-06 14:34 43.85390 51.10430 59 ft 59 kts 303°
2026-05-06 14:34 43.85749 51.09654 71 ft 128 kts 302°
2026-05-06 14:34 43.86303 51.08466 390 ft 157 kts 303°
2026-05-06 14:35 43.86919 51.07172 1088 ft 164 kts 306°
2026-05-06 14:35 43.87800 51.06299 1964 ft 164 kts 347°
2026-05-06 14:35 43.88961 51.06570 2525 ft 186 kts 27°
2026-05-06 14:35 43.89867 51.07950 3017 ft 208 kts 57°
2026-05-06 14:36 43.90613 51.09706 3471 ft 230 kts 57°
2026-05-06 14:36 43.91479 51.11677 4058 ft 248 kts 57°
2026-05-06 14:36 43.92431 51.13805 4665 ft 266 kts 57°
2026-05-06 14:36 43.93433 51.16029 5481 ft 275 kts 57°
2026-05-06 14:37 43.94448 51.18271 6428 ft 278 kts 58°
2026-05-06 14:37 43.95468 51.20528 7355 ft 282 kts 58°
2026-05-06 14:37 43.96522 51.22860 8233 ft 287 kts 59°
2026-05-06 14:37 43.97581 51.25204 9090 ft 291 kts 59°
2026-05-06 14:38 43.98652 51.27572 9927 ft 296 kts 59°
2026-05-06 14:38 43.99751 51.30006 10640 ft 305 kts 59°
2026-05-06 14:38 44.00919 51.32596 11121 ft 322 kts 59°
2026-05-06 14:38 44.02122 51.35263 11779 ft 332 kts 59°
2026-05-06 14:39 44.03353 51.37993 12516 ft 339 kts 60°
2026-05-06 14:39 44.04601 51.40757 13216 ft 345 kts 60°
2026-05-06 14:39 44.05895 51.43625 13945 ft 352 kts 60°
2026-05-06 14:39 44.07184 51.46482 14649 ft 358 kts 61°
2026-05-06 14:40 44.08512 51.49441 15417 ft 362 kts 61°
2026-05-06 14:40 44.09847 51.52417 16162 ft 366 kts 62°
2026-05-06 14:40 44.11183 51.55397 16900 ft 369 kts 62°
2026-05-06 14:40 44.12550 51.58452 17627 ft 372 kts 62°
2026-05-06 14:41 44.13919 51.61512 18321 ft 375 kts 62°
2026-05-06 14:41 44.15291 51.64581 18971 ft 379 kts 63°
2026-05-06 14:41 44.16689 51.67711 19626 ft 383 kts 63°
2026-05-06 14:41 44.18089 51.70846 20258 ft 387 kts 64°
2026-05-06 14:42 44.19525 51.74069 20922 ft 390 kts 64°
2026-05-06 14:42 44.20955 51.77280 21569 ft 393 kts 64°
2026-05-06 14:42 44.22377 51.80477 22176 ft 396 kts 65°
2026-05-06 14:42 44.23849 51.83796 22768 ft 401 kts 65°
2026-05-06 14:43 44.25304 51.87075 23391 ft 404 kts 65°
2026-05-06 14:43 44.26779 51.90408 23980 ft 407 kts 65°
2026-05-06 14:43 44.28214 51.93662 24483 ft 411 kts 65°
2026-05-06 14:43 44.29721 51.97075 25003 ft 416 kts 65°
2026-05-06 14:44 44.31251 52.00544 25532 ft 419 kts 65°
2026-05-06 14:44 44.32779 52.04012 26003 ft 424 kts 65°
2026-05-06 14:44 44.34322 52.07517 26481 ft 428 kts 65°
2026-05-06 14:45 44.37450 52.14625 27381 ft 437 kts 64°
2026-05-06 14:45 44.39120 52.18176 27821 ft 442 kts 62°
2026-05-06 14:45 44.40850 52.21755 28256 ft 445 kts 61°
2026-05-06 14:45 44.42603 52.25365 28681 ft 448 kts 61°
2026-05-06 14:46 44.44362 52.28992 29086 ft 451 kts 61°
2026-05-06 14:46 44.46115 52.32614 29466 ft 455 kts 61°
2026-05-06 14:46 44.47901 52.36317 29847 ft 457 kts 61°
2026-05-06 14:46 44.49677 52.40005 30213 ft 460 kts 61°
2026-05-06 14:47 44.51451 52.43698 30540 ft 462 kts 60°
2026-05-06 14:47 44.53252 52.47451 30853 ft 464 kts 60°
2026-05-06 14:47 44.55048 52.51203 31156 ft 466 kts 60°
2026-05-06 14:47 44.56855 52.54978 31448 ft 469 kts 60°
2026-05-06 14:48 44.58648 52.58731 31737 ft 471 kts 60°
2026-05-06 14:48 44.60483 52.62576 32035 ft 473 kts 60°
2026-05-06 14:48 44.62318 52.66423 32313 ft 475 kts 60°
2026-05-06 14:48 44.64141 52.70252 32585 ft 476 kts 60°
2026-05-06 14:49 44.65964 52.74089 32881 ft 477 kts 60°
2026-05-06 14:49 44.67800 52.77957 33238 ft 476 kts 60°
2026-05-06 14:49 44.69624 52.81803 33593 ft 475 kts 60°
2026-05-06 14:49 44.71455 52.85674 33914 ft 475 kts 59°
2026-05-06 14:50 44.73270 52.89513 34173 ft 475 kts 59°
2026-05-06 14:50 44.75092 52.93369 34430 ft 474 kts 59°
2026-05-06 14:50 44.76925 52.97255 34683 ft 473 kts 59°
2026-05-06 14:50 44.78732 53.01093 34947 ft 473 kts 59°
2026-05-06 14:51 44.80522 53.04905 35169 ft 472 kts 59°
2026-05-06 14:51 44.82333 53.08763 35369 ft 473 kts 59°
2026-05-06 14:51 44.84148 53.12632 35604 ft 472 kts 59°
2026-05-06 14:51 44.85957 53.16493 35856 ft 473 kts 59°
2026-05-06 14:52 44.87768 53.20370 36098 ft 473 kts 59°
2026-05-06 14:52 44.89561 53.24210 36364 ft 472 kts 59°
2026-05-06 14:52 44.91372 53.28096 36629 ft 472 kts 59°
2026-05-06 14:52 44.93154 53.31926 36847 ft 472 kts 59°
2026-05-06 14:53 44.94958 53.35811 36885 ft 473 kts 59°
2026-05-06 14:53 44.98555 53.43570 36893 ft 473 kts 59°
2026-05-06 14:54 45.02139 53.51316 36892 ft 473 kts 59°
2026-05-06 14:54 45.05732 53.59111 36886 ft 474 kts 59°
2026-05-06 14:55 45.09301 53.66875 36888 ft 473 kts 59°
2026-05-06 14:55 45.12897 53.74715 36887 ft 472 kts 59°
2026-05-06 14:56 45.16455 53.82499 36877 ft 472 kts 59°
2026-05-06 14:56 45.19986 53.90248 36878 ft 472 kts 60°
2026-05-06 14:57 45.23550 53.98069 36876 ft 472 kts 59°
2026-05-06 14:57 45.27106 54.05870 36884 ft 473 kts 60°
2026-05-06 14:58 45.30680 54.13747 36869 ft 473 kts 59°
2026-05-06 14:58 45.34203 54.21531 36883 ft 473 kts 60°
2026-05-06 14:59 45.37757 54.29411 36871 ft 472 kts 59°
2026-05-06 14:59 45.41293 54.37267 36873 ft 472 kts 59°
2026-05-06 15:00 45.43052 54.41186 36874 ft 471 kts 59°
2026-05-06 15:00 45.48339 54.52999 36863 ft 471 kts 59°
2026-05-06 15:01 45.51855 54.60883 36873 ft 470 kts 59°
2026-05-06 15:01 45.55358 54.68755 36886 ft 470 kts 60°
2026-05-06 15:02 45.58885 54.76706 36887 ft 470 kts 60°
2026-05-06 15:02 45.62371 54.84599 36883 ft 470 kts 60°
2026-05-06 15:03 45.65865 54.92531 36872 ft 471 kts 60°
2026-05-06 15:03 45.69325 55.00412 36881 ft 471 kts 60°
2026-05-06 15:04 45.72805 55.08359 36878 ft 471 kts 60°
2026-05-06 15:04 45.76250 55.16249 36872 ft 471 kts 60°
2026-05-06 15:05 45.79708 55.24193 36876 ft 471 kts 60°
2026-05-06 15:05 45.83157 55.32135 36878 ft 471 kts 60°
2026-05-06 15:06 45.86616 55.40125 36880 ft 471 kts 60°
2026-05-06 15:06 45.90083 55.48154 36884 ft 471 kts 60°
2026-05-06 15:07 45.93517 55.56131 36882 ft 471 kts 60°
2026-05-06 15:07 45.96940 55.64104 36883 ft 471 kts 60°
2026-05-06 15:08 46.00362 55.72100 36880 ft 470 kts 60°
2026-05-06 15:08 46.03778 55.80107 36879 ft 469 kts 60°
2026-05-06 15:09 46.07158 55.88046 36880 ft 468 kts 60°
2026-05-06 15:09 46.10553 55.96043 36884 ft 469 kts 60°
2026-05-06 15:10 46.13935 56.04037 36880 ft 469 kts 60°
2026-05-06 15:10 46.17318 56.12055 36880 ft 469 kts 60°
2026-05-06 15:11 46.20710 56.20120 36885 ft 469 kts 60°
2026-05-06 15:11 46.24059 56.28103 36893 ft 469 kts 60°
2026-05-06 15:12 46.27414 56.36126 36896 ft 469 kts 60°
2026-05-06 15:12 46.30782 56.44201 36896 ft 468 kts 60°
2026-05-06 15:13 46.34111 56.52207 36893 ft 468 kts 60°
2026-05-06 15:13 46.37466 56.60302 36894 ft 468 kts 60°
2026-05-06 15:14 46.40803 56.68372 36895 ft 468 kts 61°
2026-05-06 15:14 46.44113 56.76405 36897 ft 468 kts 61°
2026-05-06 15:15 46.47436 56.84499 36898 ft 468 kts 61°
2026-05-06 15:15 46.50750 56.92575 36902 ft 468 kts 61°
2026-05-06 15:16 46.54079 57.00711 36902 ft 468 kts 61°
2026-05-06 15:16 46.57378 57.08805 36908 ft 467 kts 61°
2026-05-06 15:17 46.60665 57.16898 36910 ft 467 kts 61°
2026-05-06 15:17 46.63942 57.24989 36915 ft 466 kts 61°
2026-05-06 15:18 46.67233 57.33138 36915 ft 466 kts 61°
2026-05-06 15:18 46.70483 57.41209 36914 ft 466 kts 61°
2026-05-06 15:19 46.73742 57.49327 36909 ft 465 kts 61°
2026-05-06 15:19 46.76997 57.57457 36914 ft 465 kts 61°
2026-05-06 15:20 46.80232 57.65562 36914 ft 464 kts 62°
2026-05-06 15:20 46.83474 57.73709 36912 ft 464 kts 62°
2026-05-06 15:21 46.86699 57.81843 36915 ft 463 kts 62°
2026-05-06 15:21 46.89905 57.89951 36908 ft 462 kts 62°
2026-05-06 15:22 46.93101 57.98057 36910 ft 463 kts 62°
2026-05-06 15:22 46.96305 58.06205 36906 ft 463 kts 62°
2026-05-06 15:23 46.99496 58.14345 36910 ft 463 kts 62°
2026-05-06 15:23 47.02689 58.22513 36915 ft 463 kts 62°
2026-05-06 15:24 47.05867 58.30668 36914 ft 463 kts 62°
2026-05-06 15:24 47.09040 58.38839 36915 ft 463 kts 62°
2026-05-06 15:25 47.12212 58.47030 36912 ft 462 kts 62°
2026-05-06 15:25 47.15367 58.55203 36916 ft 463 kts 62°
2026-05-06 15:26 47.18521 58.63397 36919 ft 463 kts 62°
2026-05-06 15:26 47.21688 58.71648 36920 ft 463 kts 63°
2026-05-06 15:27 47.24823 58.79844 36919 ft 463 kts 63°
2026-05-06 15:27 47.27959 58.88063 36919 ft 463 kts 63°
2026-05-06 15:28 47.31115 58.96364 36923 ft 463 kts 63°
2026-05-06 15:28 47.34232 59.04588 36936 ft 463 kts 63°
2026-05-06 15:29 47.37375 59.12907 36944 ft 464 kts 63°
2026-05-06 15:29 47.40496 59.21189 36938 ft 464 kts 63°
2026-05-06 15:30 47.43611 59.29488 36946 ft 464 kts 63°
2026-05-06 15:30 47.46714 59.37774 36946 ft 464 kts 63°
2026-05-06 15:31 47.49831 59.46128 36936 ft 464 kts 63°
2026-05-06 15:31 47.52924 59.54438 36948 ft 464 kts 63°
2026-05-06 15:32 47.57558 59.66943 36955 ft 463 kts 64°
2026-05-06 15:32 47.60632 59.75271 36956 ft 464 kts 64°
2026-05-06 15:33 47.63725 59.83678 36955 ft 464 kts 64°
2026-05-06 15:33 47.66793 59.92043 36962 ft 464 kts 64°
2026-05-06 15:34 47.69848 60.00402 36954 ft 464 kts 64°
2026-05-06 15:34 47.72919 60.08836 36954 ft 464 kts 64°
2026-05-06 15:35 47.75971 60.17235 36958 ft 464 kts 64°
2026-05-06 15:35 47.79023 60.25650 36956 ft 463 kts 64°
2026-05-06 15:36 47.82037 60.33998 36959 ft 463 kts 64°
2026-05-06 15:36 47.85074 60.42433 36959 ft 463 kts 64°
2026-05-06 15:37 47.88092 60.50849 36964 ft 463 kts 64°
2026-05-06 15:37 47.91109 60.59291 36966 ft 462 kts 64°
2026-05-06 15:38 47.94108 60.67705 36961 ft 462 kts 65°
2026-05-06 15:38 47.97109 60.76157 36968 ft 462 kts 65°
2026-05-06 15:39 48.00106 60.84620 36973 ft 462 kts 65°
2026-05-06 15:39 48.03086 60.93070 36972 ft 462 kts 65°
2026-05-06 15:40 48.06054 61.01502 36964 ft 461 kts 65°
2026-05-06 15:40 48.09034 61.10009 36966 ft 462 kts 65°
2026-05-06 15:41 48.11993 61.18478 36966 ft 462 kts 65°
2026-05-06 15:41 48.14960 61.26995 36967 ft 462 kts 65°
2026-05-06 15:42 48.17909 61.35489 36966 ft 462 kts 65°
2026-05-06 15:42 48.20836 61.43945 36970 ft 461 kts 65°
2026-05-06 15:43 48.23774 61.52464 36965 ft 462 kts 65°
2026-05-06 15:43 48.26722 61.61041 36970 ft 462 kts 65°
2026-05-06 15:44 48.29651 61.69586 36968 ft 461 kts 66°
2026-05-06 15:44 48.32572 61.78144 36970 ft 462 kts 65°
2026-05-06 15:45 48.35490 61.86719 36968 ft 462 kts 66°
2026-05-06 15:45 48.38397 61.95286 36971 ft 462 kts 66°
2026-05-06 15:46 48.41291 62.03848 36971 ft 463 kts 65°
2026-05-06 15:46 48.44202 62.12490 36979 ft 463 kts 65°
2026-05-06 15:47 48.47091 62.21091 36985 ft 462 kts 65°
2026-05-06 15:47 48.49973 62.29701 36987 ft 462 kts 66°
2026-05-06 15:48 48.52836 62.38286 36987 ft 462 kts 65°
2026-05-06 15:48 48.55702 62.46909 36991 ft 461 kts 65°
2026-05-06 15:49 48.58569 62.55571 36991 ft 462 kts 65°
2026-05-06 15:49 48.61422 62.64217 36992 ft 462 kts 65°
2026-05-06 15:50 48.64168 62.72778 37001 ft 461 kts 68°
2026-05-06 15:50 48.66837 62.81735 37004 ft 461 kts 69°
2026-05-06 15:51 48.68962 62.88891 36999 ft 461 kts 69°
2026-05-06 15:51 48.71570 62.97658 37010 ft 461 kts 69°
2026-05-06 15:52 48.73766 63.05047 37011 ft 461 kts 69°
2026-05-06 15:53 48.76514 63.14325 37006 ft 461 kts 68°
2026-05-06 15:53 48.79137 63.23208 37010 ft 462 kts 68°
2026-05-06 15:54 48.81739 63.32058 37005 ft 462 kts 68°
2026-05-06 15:54 48.84358 63.40995 37010 ft 462 kts 68°
2026-05-06 15:55 48.86961 63.49915 37015 ft 463 kts 68°
2026-05-06 15:55 48.89693 63.58698 37016 ft 464 kts 65°
2026-05-06 15:56 48.92612 63.67377 37010 ft 464 kts 65°
2026-05-06 15:56 48.95541 63.76108 37010 ft 464 kts 65°
2026-05-06 15:57 48.98466 63.84886 37020 ft 464 kts 65°
2026-05-06 15:57 49.01367 63.93631 37014 ft 464 kts 65°
2026-05-06 15:58 49.04247 64.02347 37018 ft 464 kts 65°
2026-05-06 15:58 49.07135 64.11123 37012 ft 464 kts 65°
2026-05-06 15:59 49.10020 64.19915 37017 ft 462 kts 65°
2026-05-06 15:59 49.12867 64.28625 37011 ft 463 kts 65°
2026-05-06 16:00 49.15758 64.37500 37017 ft 463 kts 65°
2026-05-06 16:00 49.18628 64.46336 37016 ft 463 kts 65°
2026-05-06 16:01 49.21480 64.55156 37023 ft 463 kts 65°
2026-05-06 16:01 49.24302 64.63912 37016 ft 463 kts 65°
2026-05-06 16:02 49.27148 64.72767 37021 ft 464 kts 66°
2026-05-06 16:02 49.29979 64.81612 37018 ft 464 kts 66°
2026-05-06 16:03 49.32801 64.90469 37032 ft 463 kts 66°
2026-05-06 16:03 49.35590 64.99346 37031 ft 463 kts 67°
2026-05-06 16:04 49.38256 65.08361 37037 ft 462 kts 68°
2026-05-06 16:04 49.40889 65.17339 37030 ft 463 kts 67°
2026-05-06 16:05 49.43508 65.26269 37036 ft 463 kts 67°
2026-05-06 16:05 49.46140 65.35260 37041 ft 462 kts 67°
2026-05-06 16:06 49.48775 65.44293 37043 ft 462 kts 67°
2026-05-06 16:06 49.51376 65.53243 37041 ft 463 kts 67°
2026-05-06 16:07 49.53992 65.62274 37048 ft 463 kts 67°
2026-05-06 16:07 49.56599 65.71312 37048 ft 463 kts 68°
2026-05-06 16:08 49.59177 65.80288 37050 ft 464 kts 68°
2026-05-06 16:08 49.61773 65.89349 37057 ft 463 kts 68°
2026-05-06 16:09 49.64360 65.98422 37056 ft 464 kts 68°
2026-05-06 16:09 49.66959 66.07572 37051 ft 464 kts 67°
2026-05-06 16:10 49.69533 66.16674 37057 ft 464 kts 67°
2026-05-06 16:10 49.72093 66.25757 37059 ft 464 kts 67°
2026-05-06 16:11 49.74653 66.34862 37060 ft 465 kts 66°
2026-05-06 16:11 49.77299 66.43970 37057 ft 464 kts 66°
2026-05-06 16:12 49.79932 66.53029 37068 ft 464 kts 66°
2026-05-06 16:12 49.82575 66.62201 37068 ft 465 kts 66°
2026-05-06 16:13 49.85184 66.71284 37070 ft 465 kts 66°
2026-05-06 16:13 49.87799 66.80439 37078 ft 464 kts 66°
2026-05-06 16:14 49.90390 66.89548 37078 ft 464 kts 66°
2026-05-06 16:14 49.92966 66.98644 37080 ft 463 kts 66°
2026-05-06 16:15 49.95560 67.07829 37077 ft 463 kts 66°
2026-05-06 16:15 49.97953 67.17080 37077 ft 463 kts 70°
2026-05-06 16:16 50.00097 67.26529 37078 ft 464 kts 71°
2026-05-06 16:16 50.02236 67.36047 37080 ft 464 kts 71°
2026-05-06 16:17 50.04358 67.45496 37079 ft 464 kts 71°
2026-05-06 16:17 50.06470 67.54928 37082 ft 464 kts 70°
2026-05-06 16:18 50.08575 67.64366 37079 ft 463 kts 70°
2026-05-06 16:18 50.10681 67.73834 37078 ft 463 kts 71°
2026-05-06 16:19 50.12780 67.83330 37080 ft 463 kts 71°
2026-05-06 16:19 50.14877 67.92863 37081 ft 463 kts 71°
2026-05-06 16:20 50.16942 68.02292 37081 ft 463 kts 71°
2026-05-06 16:20 50.19005 68.11759 37077 ft 463 kts 71°
2026-05-06 16:21 50.21050 68.21195 37082 ft 463 kts 70°
2026-05-06 16:21 50.23190 68.30714 37094 ft 464 kts 69°
2026-05-06 16:22 50.25501 68.40038 37090 ft 464 kts 68°
2026-05-06 16:22 50.27840 68.49463 37084 ft 466 kts 69°
2026-05-06 16:23 50.30162 68.58901 37084 ft 467 kts 68°
2026-05-06 16:23 50.32480 68.68374 37022 ft 466 kts 69°
2026-05-06 16:24 50.33635 68.73099 36314 ft 465 kts 69°
2026-05-06 16:24 50.34774 68.77769 35191 ft 472 kts 70°
2026-05-06 16:24 50.35947 68.82582 33847 ft 477 kts 70°
2026-05-06 16:24 50.37104 68.87373 33176 ft 464 kts 70°
2026-05-06 16:25 50.38242 68.92094 32678 ft 462 kts 70°
2026-05-06 16:25 50.39374 68.96791 32137 ft 460 kts 70°
2026-05-06 16:25 50.40492 69.01438 31560 ft 462 kts 70°
2026-05-06 16:25 50.41619 69.06139 30939 ft 462 kts 70°
2026-05-06 16:26 50.42742 69.10837 30309 ft 462 kts 70°
2026-05-06 16:26 50.43873 69.15568 29890 ft 455 kts 70°
2026-05-06 16:26 50.44971 69.20177 29490 ft 452 kts 70°
2026-05-06 16:26 50.46064 69.24764 29046 ft 449 kts 70°
2026-05-06 16:27 50.47152 69.29327 28623 ft 445 kts 70°
2026-05-06 16:27 50.48228 69.33852 28211 ft 442 kts 70°
2026-05-06 16:27 50.49291 69.38340 27793 ft 438 kts 70°
2026-05-06 16:27 50.50168 69.42059 27441 ft 435 kts 70°
2026-05-06 16:28 50.51225 69.46540 26988 ft 432 kts 70°
2026-05-06 16:28 50.52260 69.50947 26551 ft 429 kts 69°
2026-05-06 16:28 50.53282 69.55296 26110 ft 426 kts 70°
2026-05-06 16:28 50.54310 69.59685 25688 ft 422 kts 69°
2026-05-06 16:29 50.55306 69.63949 25271 ft 418 kts 69°
2026-05-06 16:29 50.56311 69.68259 25082 ft 417 kts 70°
2026-05-06 16:29 50.57317 69.72588 25078 ft 419 kts 70°
2026-05-06 16:29 50.58325 69.76929 25077 ft 419 kts 70°
2026-05-06 16:30 50.59316 69.81197 25078 ft 418 kts 70°
2026-05-06 16:30 50.59657 69.82675 25078 ft 418 kts 70°
2026-05-06 16:30 50.61283 69.89712 25081 ft 418 kts 70°
2026-05-06 16:30 50.62283 69.94054 25081 ft 419 kts 70°
2026-05-06 16:31 50.63275 69.98361 25080 ft 419 kts 70°
2026-05-06 16:31 50.64275 70.02719 25080 ft 419 kts 70°
2026-05-06 16:31 50.65277 70.07101 25084 ft 420 kts 70°
2026-05-06 16:31 50.66230 70.11277 25079 ft 418 kts 70°
2026-05-06 16:32 50.67201 70.15543 24691 ft 408 kts 70°
2026-05-06 16:32 50.68156 70.19734 23528 ft 410 kts 70°
2026-05-06 16:32 50.69194 70.23923 22191 ft 414 kts 67°
2026-05-06 16:32 50.70304 70.28110 21063 ft 410 kts 66°
2026-05-06 16:33 50.71389 70.32168 20088 ft 403 kts 66°
2026-05-06 16:33 50.72459 70.36179 19124 ft 395 kts 66°
2026-05-06 16:33 50.73496 70.40083 18160 ft 388 kts 67°
2026-05-06 16:34 50.75521 70.47746 16553 ft 366 kts 67°
2026-05-06 16:34 50.76467 70.51347 16115 ft 354 kts 67°
2026-05-06 16:34 50.77396 70.54882 15707 ft 346 kts 67°
2026-05-06 16:34 50.78312 70.58375 15290 ft 343 kts 67°
2026-05-06 16:35 50.79218 70.61837 14862 ft 342 kts 67°
2026-05-06 16:35 50.80125 70.65307 14450 ft 341 kts 68°
2026-05-06 16:35 50.81028 70.68762 14052 ft 340 kts 68°
2026-05-06 16:35 50.81918 70.72177 13661 ft 339 kts 68°
2026-05-06 16:36 50.82801 70.75568 13265 ft 338 kts 68°
2026-05-06 16:36 50.83702 70.79032 12855 ft 338 kts 68°
2026-05-06 16:36 50.84597 70.82485 12460 ft 336 kts 68°
2026-05-06 16:36 50.85471 70.85868 12069 ft 335 kts 69°
2026-05-06 16:37 50.86027 70.89393 11311 ft 332 kts 89°
2026-05-06 16:37 50.85888 70.93010 10317 ft 331 kts 98°
2026-05-06 16:37 50.85584 70.96522 9694 ft 319 kts 99°
2026-05-06 16:37 50.85323 70.99938 9130 ft 308 kts 97°
2026-05-06 16:38 50.85121 71.03250 8585 ft 296 kts 96°
2026-05-06 16:38 50.84966 71.06396 8040 ft 287 kts 95°
2026-05-06 16:38 50.84829 71.09538 7311 ft 285 kts 95°
2026-05-06 16:38 50.84701 71.12599 6621 ft 282 kts 95°
2026-05-06 16:39 50.84339 71.15584 5950 ft 276 kts 115°
2026-05-06 16:39 50.83246 71.17969 5354 ft 268 kts 138°
2026-05-06 16:39 50.81776 71.19746 4741 ft 263 kts 146°
2026-05-06 16:39 50.80270 71.21283 4228 ft 255 kts 147°
2026-05-06 16:40 50.78808 71.22691 4003 ft 237 kts 148°
2026-05-06 16:40 50.77305 71.23739 3990 ft 238 kts 170°
2026-05-06 16:40 50.75666 71.23496 3994 ft 241 kts 204°
2026-05-06 16:40 50.74391 71.21858 3997 ft 237 kts 236°
2026-05-06 16:41 50.73825 71.19520 3994 ft 226 kts 268°
2026-05-06 16:41 50.74102 71.17141 3999 ft 222 kts 299°
2026-05-06 16:41 50.75097 71.15335 4000 ft 220 kts 329°
2026-05-06 16:41 50.76534 71.14570 4003 ft 218 kts 359°
2026-05-06 16:42 50.78013 71.15031 4004 ft 216 kts 27°
2026-05-06 16:42 50.79343 71.16090 4002 ft 217 kts 19°
2026-05-06 16:42 50.80822 71.16608 4005 ft 217 kts
2026-05-06 16:42 50.82329 71.16979 4002 ft 217 kts 14°
2026-05-06 16:43 50.83723 71.17812 3999 ft 216 kts 33°
2026-05-06 16:43 50.84895 71.19325 4010 ft 217 kts 44°
2026-05-06 16:43 50.85976 71.21003 4004 ft 216 kts 45°
2026-05-06 16:43 50.87032 71.22695 3996 ft 216 kts 45°
2026-05-06 16:44 50.88092 71.24390 3998 ft 217 kts 45°
2026-05-06 16:44 50.89168 71.26099 3998 ft 217 kts 45°
2026-05-06 16:44 50.90231 71.27776 3982 ft 217 kts 45°
2026-05-06 16:44 50.91293 71.29443 3802 ft 213 kts 45°
2026-05-06 16:45 50.92350 71.31101 3529 ft 209 kts 45°
2026-05-06 16:45 50.93350 71.32668 3258 ft 197 kts 45°
2026-05-06 16:45 50.94301 71.34158 3056 ft 186 kts 45°
2026-05-06 16:45 50.95184 71.35541 2835 ft 174 kts 45°
2026-05-06 16:46 50.96013 71.36839 2599 ft 163 kts 45°
2026-05-06 16:46 50.96805 71.38079 2356 ft 153 kts 46°
2026-05-06 16:46 50.97532 71.39217 2145 ft 142 kts 46°
2026-05-06 16:46 50.98221 71.40294 1966 ft 138 kts 46°
2026-05-06 16:47 50.98909 71.41367 1805 ft 138 kts 46°
2026-05-06 16:47 50.99597 71.42455 1629 ft 138 kts 46°
2026-05-06 16:47 51.00277 71.43528 1424 ft 137 kts 46°
2026-05-06 16:47 51.00954 71.44585 1246 ft 135 kts 46°
2026-05-06 16:48 51.01614 71.45609 1175 ft 123 kts 45°
2026-05-06 16:48 51.02096 71.46371 1174 ft 73 kts 45°
2026-05-06 16:48 51.02379 71.46811 1174 ft 39 kts 46°
2026-05-06 16:48 51.02520 71.46922 1174 ft 18 kts 317°
2026-05-06 16:49 51.02602 71.46795 1174 ft 16 kts 315°
2026-05-06 16:49 51.02667 71.46683 1174 ft 13 kts 315°
2026-05-06 16:49 51.02706 71.46589 1174 ft 10 kts 269°
2026-05-06 16:49 51.02662 71.46497 1174 ft 11 kts 224°
2026-05-06 16:50 51.02633 71.46391 1174 ft 9 kts 283°
2026-05-06 16:50 51.02665 71.46322 1174 ft 5 kts 315°
2026-05-06 16:50 51.02689 71.46285 1174 ft 3 kts 315°
2026-05-06 16:50 51.02692 71.46278 1174 ft 1 kts 314°